Regional Weather Roundup
Issued by NWS Grand Forks, ND

Home | Current Version | Previous Version | Text Only | Print | Product List | Glossary Off
Versions: 1 2 3 4 5 6 7 8 9 10 11 12 13 14 15 16 17 18 19 20 21 22 23 24 25 26 27 28 29 30 31 32 33 34 35 36 37 38 39 40 41 42 43 44 45 46 47 48 49 50

000
ASUS43 KFGF 271010
RWRFGF
PRAIRIE TO PINES  WEATHER ROUNDUP
NATIONAL WEATHER SERVICE EASTERN NORTH DAKOTA/GRAND FORKS ND
500 AM CDT FRI MAR 27 2015

 **SATELLITE DATA USED TO AUGMENT SKY COVER AT AUTOMATED STATIONS**
 *****  WEATHER ACROSS EASTERN NORTH DAKOTA  *****

CITY           SKY/WX    TMP DP  RH WIND       PRES   REMARKS
GRAND FORKS    PTCLDY    13  10  88 CALM      30.28F
GRAND FRKS AFB PTCLDY    13  10  86 SW2       30.27F
GRAND FRKS NWS   N/A     12 N/A N/A MISG        N/A
DEVILS LAKE    MOCLDY    21  16  79 S9        30.21S WCI  11
FARGO          CLEAR     10   6  84 CALM      30.28F
WAHPETON ARPT  SUNNY     12   5  73 CALM      30.28F
$$

 ***** WEATHER ACROSS CENTRAL AND WESTERN NORTH DAKOTA  *****

CITY           SKY/WX    TMP DP  RH WIND       PRES   REMARKS
BISMARCK       CLOUDY    26  16  65 SE13      30.20S WCI  15
MINOT          CLOUDY    30  17  58 SE9       30.11F WCI  22
JAMESTOWN      PTCLDY    19  14  81 S6        30.23S WCI  11
MINOT AFB      CLOUDY    30  22  72 S14       30.10F WCI  19
GARRISON         N/A     29  19  66 S10       30.12F WCI  20
WILLISTON      CLOUDY    37  29  72 S9        30.01F
DICKINSON      CLOUDY    33  29  85 S14       30.03F WCI  23
HETTINGER      CLOUDY    32  29  88 SE10      30.09F WCI  24
$$

 *****  OTHER AIRPORT OBSERVATIONS IN OUR AREA  *****

CITY           SKY/WX    TMP DP  RH WIND       PRES   REMARKS
WALHALLA         N/A     19  14  79 S6        30.25S WCI  11
GRAFTON AIRPOR NOT AVBL
VALLEY CITY AR FAIR      16  16 100 SW3       30.25R
CANDO          NOT AVBL
CAVALIER APRT  FAIR      19  12  73 S7        30.26F WCI  10
GWINNER          N/A     19  16  86 CALM        N/A
SHEYENNE NWR     N/A      9   6  88 CALM      29.95S
ROLLA          CLOUDY    23  19  86 S15G24    30.16F WCI  10
 ***** THE ABOVE OBSERVATIONS ARE NON NWS ARE NOT QUALITY
       CONTROLLED AND MAY MIS-REPORT RAIN FOR SNOW...
$$

  *****  WEATHER ACROSS NORTHERN MINNESOTA  *****

CITY           SKY/WX    TMP DP  RH WIND       PRES   REMARKS
FLAG ISLAND    CLEAR      9   5  85 CALM      30.26S
WARROAD        CLEAR     10   9  92 CALM      30.27F
ROSEAU         FAIR      14   9  79 CALM      30.27F
HALLOCK        CLEAR     12   9  85 CALM      30.27S
THF RVR FALLS  CLEAR     16  12  86 CALM      30.27S
BAUDETTE       CLEAR     10   5  80 CALM      30.26R
WASKISH        CLEAR      7   3  85 CALM      30.27R
CROOKSTON      CLEAR     12   9  85 CALM      30.29F
STEPHEN NDAWN    N/A     12   9  85 S3          N/A
GREENBUSH NDAW   N/A     14  12  92 SE3         N/A
$$
  *****  WEATHER ACROSS CENTRAL AND WEST MINNESOTA  *****

CITY           SKY/WX    TMP DP  RH WIND       PRES   REMARKS
FOSSTON        CLEAR      7   3  85 CALM      30.27S
BEMIDJI        CLEAR      3  -1  81 CALM      30.25R
PARK RAPIDS    CLEAR      8   1  73 CALM      30.24R
ELBOW LAKE     FAIR      13  10  90 CALM      30.27R
WADENA         CLEAR      9   3  78 NW3       30.25R
DETROIT LAKES  CLEAR     12  10  92 CALM      30.27R
MOORHEAD       CLEAR     14  12  92 CALM      30.29F
FERGUS FALLS   CLEAR     12   9  85 CALM      30.31S
MORRIS MN      CLEAR     14  10  85 NW6       30.27R WCI   5
STAPLES        CLEAR     10   3  72 CALM      30.25R
$$
  *****  WEATHER ELSEWHERE ACROSS MINNESOTA  *****

CITY           SKY/WX    TMP DP  RH WIND       PRES   REMARKS
DULUTH         CLEAR     12   3  67 N7        30.21S WCI   1
INTRNTL FALLS  CLEAR      5   1  83 CALM      30.25S
ELY            CLEAR      1   0  92 CALM      30.23R
CLOQUET        FAIR      10   1  67 N7        30.23S WCI   0
WHEATON        CLEAR     14  10  85 CALM      30.31R
BRAINERD       CLEAR     11   5  77 CALM      30.25S
HIBBING        FAIR       3  -2  79 NW3       30.24R
ALEXANDRIA     CLEAR     14   8  77 NE3       30.26R
SAINT CLOUD    CLEAR     13   7  77 CALM      30.25S
MINNEAPOLIS    CLEAR     20   3  48 N7        30.26S WCI  11
$$

  *****  WEATHER ACROSS SOUTH DAKOTA  *****

CITY           SKY/WX    TMP DP  RH WIND       PRES   REMARKS
SIOUX FALLS    PTCLDY    15  10  80 CALM      30.25F
BROOKINGS      NOT AVBL
WATERTOWN      CLEAR     15  10  80 CALM      30.24S
HURON          PTCLDY    12   8  84 CALM      30.28F
SISSETON         N/A     15  11  83 W3        30.27S
ABERDEEN       CLEAR     12   9  87 CALM      30.28S
MITCHELL       CLEAR     15  11  83 W5        30.30S WCI   8
PIERRE         CLOUDY    26  18  71 SE9       30.22S WCI  17
MOBRIDGE       CLOUDY    26  14  60 S16       30.19F WCI  14
RAPID CITY     CLOUDY    33  28  81 SE7       30.08F
$$

  *****  SOME WEATHER IN NEARBY STATES *****

CITY           SKY/WX    TMP DP  RH WIND       PRES   REMARKS
GLASGOW MT     MOCLDY    37  31  78 SE3       29.95F
GREAT FALLS MT PTCLDY    46  34  62 S13       30.07F
CHEYENNE WY    CLOUDY    48  28  46 W14G21    30.14F
SCOTTSBLUFF NE CLOUDY    37  34  89 E12       30.15F
OMAHA NE       PTCLDY    25  18  74 N7        30.25R WCI  17
DES MOINES IA  MOCLDY    30  14  51 N9        30.20S WCI  22
DAVENPORT IA   CLOUDY    27  22  81 N7        30.13R WCI  19
CHICAGO IL     LGT SNOW  27  22  81 NE13      30.08R WCI  16
EAU CLAIRE WI  CLEAR     18   6  59 N5        30.22R WCI  11
LA CROSSE WI   CLEAR     21   9  59 N5        30.22S WCI  15
$$

  *****  SOME NATIONAL WEATHER *****

CITY           SKY/WX    TMP DP  RH WIND       PRES   REMARKS
LA GUARDIA NY  LGT RAIN  39  36  87 NW20      29.76R
RALEIGH NC     CLOUDY    59  50  72 N10G21    29.67R
ATLANTA GA     CLOUDY    49  45  86 NW10      29.74S
NEW ORLEANS LA CLOUDY    54  47  77 N17       29.96R
OKLAHOMA CITY  CLOUDY    53  34  48 NW15      30.09R
ALBUQUERQUE NM PTCLDY    46  19  34 E6        30.25F
SALT LAKE CITY CLEAR     43  30  60 SE6       30.32F
LOS ANGELES CA CLEAR     64  50  60 CALM      30.04S
BOISE ID       CLEAR     47  40  76 SE8       30.24F
SEATTLE WA     PTCLDY    52  48  86 NE6       30.09F
$$

*** WEATHER ACROSS MANITOBA...SASKATCHEWAN AND ONTARIO ***
                ***ONTARIO***

CITY           SKY/WX    TMP DP  RH WIND       PRES   REMARKS
GERALDTON      CLEAR    -17 -22  76 CALM      30.21S
THUNDER BAY    CLEAR      3  -2  78 NW6       30.29S WCI  -8
SIOUX LOOKOUT  CLEAR     -9 -15  77 CALM      30.23F
TORONTO        MOCLDY    30  25  80 W14       29.84S WCI  20
BIG TROUT LK   CLEAR    -11 -17  77 SW3       30.20S
PICKLE LAKE    NOT AVBL
DRYDEN         CLEAR      3   1  92 CALM      30.22F
KENORA         CLEAR     10   3  72 SW6       30.24S WCI   1
$$
                *** MANITOBA***

CITY           SKY/WX    TMP DP  RH WIND       PRES   REMARKS
BRANDON        CLOUDY    23  19  86 SE6       30.16F WCI  16
DAUPHIN        CLOUDY    19  16  86 NE5       30.12F WCI  13
ISLAND LAKE    CLEAR     -4  -9  77 SE2       30.19F
PILOT MOUND      N/A     21  18  86 S13         N/A  WCI   9
THE PAS        CLOUDY    18  16  93 SE8       30.05F WCI   7
THOMPSON       CLEAR      3  -6  66 S3        30.10F
WINNIPEG       PTCLDY    14   5  67 S8        30.26F WCI   3
LYNN LAKE      MOCLDY    14   9  79 S2        30.00F
CHURCHILL      CLEAR      1  -8  66 W8        30.04F WCI -12
GILLAM         CLEAR      3 -11  51 SW7       30.11F WCI  -9
$$
                ***SASKATCHEWAN***

CITY           SKY/WX    TMP DP  RH WIND       PRES   REMARKS
ESTEVAN        CLOUDY    32  30  93 SE8       30.01F WCI  25
KINDERSLEY     MOCLDY    36  30  80 SW2       29.92S
LLOYDMINSTER   CLOUDY    37  32  81 W12       29.87R
PRINCE ALBERT  LGT SNOW  32  32 100 E3        29.89F FOG
REGINA         MOCLDY    32  30  93 SE15      29.93F WCI  22
YORKTON        LGT SNOW  27  25  93 SE14G20   29.99F WCI  15
N. BATTLEFORD  MOCLDY    32  32 100 VRB2      29.90S FOG
LA RONGE       LGT SNOW  30  28  93 E5        29.93S
SASKATOON      PTCLDY    34  32  93 S5        29.90S
SWIFT CURRENT  PTCLDY    39  34  81 W12       29.91F
$$
NOTE: THESE ARE AUTOMATED STATIONS WITH LIMITED QUALITY CONTROL
      "FAIR" INDICATES FEW OR NO CLOUDS BELOW 12,000 FEET WITH NO
      SIGNIFICANT WEATHER AND/OR OBSTRUCTIONS TO VISIBILITY.
      SKY/WX - SKY CONDITION AND SIGNIFICANT WEATHER.
      TMP - AIR TEMPERATURE.    DP   - DEWPOINT TEMPERATURE.
      RH  - RELATIVE HUMIDITY.  PRES - PRESSURE.
      HX  - HEAT INDEX.         WCI  - WIND CHILL INDEX.
$



USA.gov is the U.S. government's official web portal to all federal, state and local government web resources and services.